[[{"header":{"parameterUnit":"m.s-1","parameterCategory":1,"la1":30.2991,"la2":30.254,"lo1":-89.0895,"lo2":-89.0444,"dy":0.0017,"dx":0.0017,"nx":28,"ny":28,"refTime":"2025-07-28T21:00:00:Z","depth":0,"parameterNumber":2,"parameterNumberName":"U-component_of_WINDS"},"data":[0,0,0,0,0,0,0,0,0,0,0,0,0,0,0,0,0,0,0,0,0,0,0,0,0,0,0,0,0,0,0,0,0,0,0,0,0,0,0,0,0,0,0,0,0,0,0,0,0,0,0,0,0,0,0,0,0,0,2.1165,2.1166,0,2.1186,2.1187,2.1187,2.1139,2.1137,2.1136,2.1134,2.1157,2.1158,2.116,0,0,0,0,0,0,0,0,0,0,0,0,0,2.1086,2.1087,2.1165,2.1166,2.1166,2.1186,2.1187,2.1187,2.1139,2.1137,2.1135,2.1134,2.1156,2.1158,2.1161,0,0,0,0,0,0,0,0,0,0,0,0,0,2.1115,2.1088,2.1165,2.1145,2.1143,2.1186,2.1187,2.1187,2.114,2.1137,2.1135,2.1133,2.1155,2.1158,2.1161,2.1226,0,0,2.117,2.1172,0,0,0,0,0,0,0,0,2.1113,2.1118,2.1147,2.1146,2.1144,2.1158,2.1166,2.12,2.114,2.1141,2.1134,2.1132,2.1159,2.1161,2.117,2.1227,2.1228,2.117,2.1172,2.1174,2.1174,0,0,0,0,0,0,0,2.1111,2.1117,2.1174,2.1148,2.1146,2.1135,2.1136,2.1173,2.1162,2.1141,2.1137,2.114,2.1157,2.1168,2.117,2.1228,2.117,2.1173,2.1175,2.1176,2.134,2.1343,0,0,0,0,0,0,2.1112,2.1115,2.1173,2.1174,2.1123,2.1138,2.114,2.1156,2.1162,2.1161,2.1142,2.1138,2.1163,2.1167,2.1171,2.1249,2.1174,2.1176,2.1178,2.1338,2.1341,2.1343,0,0,0,0,0,0,2.111,2.1117,2.1172,2.1144,2.115,2.1142,2.116,2.1157,2.1167,2.1163,2.1161,2.1154,2.1162,2.1167,2.1213,2.1249,2.1178,2.1181,2.1335,2.1339,2.1342,2.1403,0,0,0,0,0,0,2.1108,2.1117,2.1141,2.1145,2.1152,2.1213,2.1162,2.1159,2.1173,2.1167,2.1174,2.1173,2.116,2.1209,2.1216,2.1252,2.1183,2.1331,2.1336,2.1341,2.1398,2.1409,2.1418,0,0,0,0,0,2.1106,2.1158,2.1143,2.115,2.1182,2.1215,2.1219,2.1204,2.1176,2.12,2.1198,2.1173,2.1243,2.1214,2.1221,2.1259,2.1329,2.1335,2.134,2.1394,2.1407,2.1418,0,0,0,0,0,0,2.1158,2.1158,2.1141,2.1196,2.1206,2.1207,2.1238,2.1218,2.1237,2.1231,2.1211,2.1213,2.1263,2.1265,2.1232,2.1322,2.1281,2.1289,2.1319,2.1332,2.1341,2.1341,2.1185,0,0,0,0,0,2.1176,2.1204,2.1201,2.125,2.1256,2.1246,2.126,2.1247,2.1257,2.1261,2.1262,2.1273,2.1298,2.1315,2.1337,2.1398,2.14,2.1427,2.1437,2.1445,2.1453,2.1487,2.15,2.1362,2.1362,2.1362,0,0,2.1214,2.1217,2.1235,2.1261,2.1267,2.1296,2.125,2.1283,2.1305,2.1266,2.131,2.1311,2.1322,2.1376,2.14,2.138,2.1491,2.1453,2.1459,2.1462,2.1494,2.1507,2.1519,2.1366,2.1365,2.1365,0,0,2.1298,2.1302,2.1344,2.1351,2.1362,2.1355,2.1365,2.1369,2.1369,2.1412,2.1385,2.1411,2.1453,2.1463,2.1473,2.1562,2.154,2.1569,2.1622,2.1655,2.1666,2.1676,2.1709,2.1721,2.1576,2.1576,2.1576,0,2.1343,2.1386,2.1368,2.1403,2.1415,2.1382,2.1425,2.1433,2.145,2.146,2.1437,2.149,2.1495,2.1552,2.1574,2.1583,2.1595,2.1569,2.1666,2.1675,2.1684,2.1715,2.1728,2.158,2.158,2.1579,2.1579,0,2.1442,2.1473,2.1505,2.1523,2.1539,2.1578,2.1566,2.1584,2.157,2.1566,2.1612,2.1617,2.164,2.1652,2.1639,2.1708,2.1695,2.1669,2.1628,2.1701,2.173,2.1742,2.1585,2.1584,2.1583,2.1582,0,0,2.1561,2.1568,2.1581,2.1589,2.1598,2.1622,2.1659,2.1682,2.1699,2.1712,2.1744,2.1782,2.1758,2.177,2.1757,2.1786,2.1858,2.1757,2.1757,2.1777,2.1937,2.1958,2.1972,2.1843,2.1846,2.1847,2.1937,0,2.1645,2.1709,2.1694,2.1758,2.1787,2.1756,2.1789,2.1799,2.1796,2.182,2.1817,2.1845,2.1811,2.1818,2.1845,2.1844,2.189,2.1837,2.1874,2.1876,2.1874,2.1987,2.2009,2.2093,2.1948,2.195,2.1951,0,2.1752,2.177,2.1837,2.1843,2.1854,2.1884,2.1905,2.1928,2.1939,2.1935,2.1949,2.193,2.1968,2.1926,2.1979,2.1943,2.1957,2.1959,2.1962,2.1966,2.1919,2.1996,2.2119,2.2133,2.1969,2.1967,2.1966,0,2.1834,2.1874,2.192,2.1928,2.1936,2.1958,2.1962,2.197,2.1986,2.2004,2.2014,2.2036,2.2048,2.2066,2.2055,2.2025,2.2111,2.2067,2.211,2.2111,2.2131,2.213,2.226,2.2137,2.2137,2.2137,2.2137,0,2.1931,2.1973,2.1957,2.1986,2.2033,2.2015,2.2063,2.2063,2.2071,2.21,2.2074,2.2102,2.2084,2.211,2.2101,2.2148,2.2153,2.2152,2.215,2.2156,2.2156,2.2166,2.2161,2.214,2.2139,2.2139,2.2138,0,2.2031,2.2021,2.207,2.2073,2.2075,2.211,2.2113,2.214,2.2135,2.2172,2.218,2.2173,2.2203,2.2193,2.2224,2.2219,2.2278,2.2267,2.2275,2.2273,2.2317,2.2314,2.246,2.2479,2.2342,2.2343,2.2344,0,2.2094,2.2126,2.2133,2.2151,2.2157,2.2185,2.22,2.2184,2.2202,2.2217,2.2243,2.227,2.2291,2.2341,2.2339,2.2364,2.2354,2.2403,2.2358,2.2363,2.2357,2.2356,2.236,2.2413,2.2415,2.2416,2.2417,0,2.2208,2.2202,2.2225,2.2248,2.2267,2.2284,2.2298,2.2314,2.2299,2.232,2.235,2.2367,2.24,2.2428,2.245,2.2455,2.2435,2.2431,2.2443,2.245,2.2454,2.2455,2.2302,2.2428,2.2427,2.2426,2.2426,2.2425,2.2293,2.2321,2.2331,2.2358,2.2367,2.2381,2.2407,2.2406,2.2431,2.2457,2.2445,2.2481,2.2492,2.252,2.2528,2.2556,2.2537,2.2553,2.2558,2.2563,2.2569,2.2448,2.256,2.2559,2.2559,2.2559,2.2558,0,2.2407,2.2412,2.2437,2.2459,2.2481,2.2458,2.2473,2.2493,2.2525,2.2536,2.2558,2.2594,2.2621,2.2622,2.2648,2.267,2.2661,2.2678,2.2677,2.2679,2.2584,2.2572,2.2684,2.2684,2.2684,2.2684,2.2684,2.2684,2.247,2.2516,2.2512,2.2563,2.2567,2.2602,2.2613,2.2626,2.2636,2.2677,2.2699,2.2699,2.2707,2.2733,2.2758,2.2758,2.2769,2.279,2.2786,2.2698,2.2685,2.2673,2.2662,2.2792,2.2792,2.2879,2.2879,2.288]},{"header":{"parameterUnit":"m.s-1","parameterCategory":1,"la1":30.2991,"la2":30.254,"lo1":-89.0895,"lo2":-89.0444,"dy":0.0017,"dx":0.0017,"nx":28,"ny":28,"refTime":"2025-07-28T21:00:00:Z","depth":0,"parameterNumber":3,"parameterNumberName":"V-component_of_WINDS"},"data":[0,0,0,0,0,0,0,0,0,0,0,0,0,0,0,0,0,0,0,0,0,0,0,0,0,0,0,0,0,0,0,0,0,0,0,0,0,0,0,0,0,0,0,0,0,0,0,0,0,0,0,0,0,0,0,0,0,0,-2.0119,-2.0119,0,-2.0127,-2.0127,-2.0127,-2.0106,-2.0106,-2.0105,-2.0105,-2.0111,-2.0112,-2.0113,0,0,0,0,0,0,0,0,0,0,0,0,0,-2.0086,-2.0086,-2.0119,-2.0119,-2.0119,-2.0127,-2.0127,-2.0127,-2.0107,-2.0106,-2.0105,-2.0104,-2.0111,-2.0112,-2.0113,0,0,0,0,0,0,0,0,0,0,0,0,0,-2.0097,-2.0087,-2.0119,-2.011,-2.0109,-2.0127,-2.0127,-2.0127,-2.0107,-2.0106,-2.0105,-2.0104,-2.0111,-2.0112,-2.0113,-2.0139,0,0,-2.0117,-2.0117,0,0,0,0,0,0,0,0,-2.0097,-2.0099,-2.0111,-2.0111,-2.011,-2.0115,-2.0118,-2.0131,-2.0107,-2.0108,-2.0105,-2.0103,-2.0113,-2.0114,-2.0118,-2.014,-2.014,-2.0117,-2.0117,-2.0118,-2.0118,0,0,0,0,0,0,0,-2.0096,-2.0098,-2.0122,-2.0111,-2.0111,-2.0105,-2.0106,-2.012,-2.0116,-2.0108,-2.0106,-2.0107,-2.0113,-2.0116,-2.0118,-2.014,-2.0117,-2.0118,-2.0118,-2.0119,-2.0184,-2.0185,0,0,0,0,0,0,-2.0096,-2.0098,-2.0122,-2.0122,-2.0101,-2.0107,-2.0107,-2.0114,-2.0115,-2.0115,-2.0108,-2.0106,-2.0115,-2.0116,-2.0118,-2.0148,-2.0118,-2.0119,-2.012,-2.0183,-2.0184,-2.0185,0,0,0,0,0,0,-2.0096,-2.0099,-2.0122,-2.011,-2.0112,-2.0108,-2.0116,-2.0115,-2.0119,-2.0116,-2.0115,-2.0113,-2.0114,-2.0116,-2.0134,-2.0148,-2.0119,-2.012,-2.0182,-2.0183,-2.0185,-2.021,0,0,0,0,0,0,-2.0095,-2.0099,-2.0109,-2.011,-2.0113,-2.0138,-2.0117,-2.0116,-2.0121,-2.0119,-2.012,-2.012,-2.0114,-2.0133,-2.0135,-2.0149,-2.0121,-2.018,-2.0183,-2.0184,-2.0208,-2.0213,-2.0216,0,0,0,0,0,-2.0094,-2.0115,-2.0109,-2.0112,-2.0125,-2.0139,-2.0141,-2.0134,-2.0122,-2.0132,-2.013,-2.0119,-2.0147,-2.0135,-2.0138,-2.0152,-2.018,-2.0182,-2.0184,-2.0206,-2.0212,-2.0216,0,0,0,0,0,0,-2.0115,-2.0115,-2.0109,-2.0131,-2.0136,-2.0136,-2.0148,-2.014,-2.0147,-2.0144,-2.0135,-2.0136,-2.0155,-2.0156,-2.0142,-2.0178,-2.0161,-2.0164,-2.0177,-2.0182,-2.0186,-2.0185,-2.0122,0,0,0,0,0,-2.0123,-2.0134,-2.0134,-2.0154,-2.0156,-2.0152,-2.0157,-2.0152,-2.0156,-2.0157,-2.0157,-2.016,-2.017,-2.0176,-2.0184,-2.0208,-2.0208,-2.022,-2.0224,-2.0227,-2.023,-2.0243,-2.0248,-2.0193,-2.0193,-2.0193,0,0,-2.0138,-2.014,-2.0147,-2.0158,-2.016,-2.0172,-2.0153,-2.0166,-2.0175,-2.0159,-2.0176,-2.0176,-2.0179,-2.0201,-2.021,-2.0202,-2.0245,-2.023,-2.0233,-2.0234,-2.0246,-2.0251,-2.0256,-2.0195,-2.0194,-2.0194,0,0,-2.0172,-2.0174,-2.0191,-2.0194,-2.0199,-2.0196,-2.02,-2.0202,-2.0201,-2.0218,-2.0207,-2.0217,-2.0233,-2.0236,-2.024,-2.0276,-2.0266,-2.0279,-2.0299,-2.0312,-2.0316,-2.032,-2.0333,-2.0337,-2.0281,-2.0281,-2.0281,0,-2.019,-2.0208,-2.0201,-2.0215,-2.022,-2.0207,-2.0224,-2.0227,-2.0234,-2.0237,-2.0228,-2.0249,-2.025,-2.0272,-2.0281,-2.0284,-2.0288,-2.0278,-2.0316,-2.032,-2.0324,-2.0335,-2.034,-2.0283,-2.0283,-2.0282,-2.0282,0,-2.023,-2.0242,-2.0255,-2.0263,-2.027,-2.0285,-2.028,-2.0288,-2.0282,-2.028,-2.0298,-2.0299,-2.0308,-2.0313,-2.0307,-2.0334,-2.0329,-2.0318,-2.0301,-2.033,-2.0341,-2.0346,-2.0285,-2.0284,-2.0284,-2.0284,0,0,-2.0276,-2.0281,-2.0286,-2.0289,-2.0293,-2.0302,-2.0317,-2.0326,-2.0333,-2.0338,-2.035,-2.0365,-2.0355,-2.0359,-2.0354,-2.0365,-2.0393,-2.0353,-2.0353,-2.036,-2.0423,-2.0431,-2.0436,-2.0387,-2.0388,-2.0389,-2.0423,0,-2.0309,-2.0336,-2.033,-2.0356,-2.0367,-2.0355,-2.0368,-2.0372,-2.0371,-2.038,-2.0379,-2.0389,-2.0376,-2.0379,-2.0389,-2.0388,-2.0406,-2.0385,-2.0398,-2.0399,-2.0397,-2.0442,-2.045,-2.0482,-2.0427,-2.0428,-2.0428,0,-2.0351,-2.0359,-2.0386,-2.0389,-2.0393,-2.0405,-2.0413,-2.0422,-2.0427,-2.0425,-2.043,-2.0423,-2.0437,-2.0421,-2.0441,-2.0427,-2.0432,-2.0432,-2.0433,-2.0434,-2.0415,-2.0443,-2.0492,-2.0497,-2.0435,-2.0434,-2.0434,0,-2.0382,-2.0399,-2.0418,-2.0421,-2.0425,-2.0433,-2.0435,-2.0439,-2.0445,-2.0451,-2.0455,-2.0464,-2.0468,-2.0475,-2.047,-2.0458,-2.0491,-2.0473,-2.0489,-2.0489,-2.0496,-2.0496,-2.0546,-2.05,-2.05,-2.05,-2.05,0,-2.0419,-2.0436,-2.0432,-2.0443,-2.0461,-2.0455,-2.0474,-2.0474,-2.0477,-2.0488,-2.0478,-2.0489,-2.0482,-2.0491,-2.0488,-2.0505,-2.0507,-2.0506,-2.0504,-2.0506,-2.0507,-2.0509,-2.0507,-2.0501,-2.0501,-2.0501,-2.0501,0,-2.0457,-2.0454,-2.0474,-2.0476,-2.0477,-2.0491,-2.0492,-2.0503,-2.0501,-2.0515,-2.0518,-2.0516,-2.0527,-2.0523,-2.0534,-2.0532,-2.0553,-2.0549,-2.0552,-2.0551,-2.0567,-2.0566,-2.062,-2.0627,-2.0577,-2.0578,-2.0578,0,-2.048,-2.0493,-2.0497,-2.0504,-2.0507,-2.0518,-2.0525,-2.0519,-2.0526,-2.0532,-2.0542,-2.0552,-2.056,-2.0578,-2.0577,-2.0586,-2.0582,-2.0601,-2.0583,-2.0585,-2.0582,-2.0581,-2.0582,-2.0604,-2.0604,-2.0605,-2.0605,0,-2.0523,-2.0521,-2.053,-2.054,-2.0548,-2.0555,-2.0561,-2.0567,-2.0562,-2.057,-2.0582,-2.0588,-2.06,-2.0611,-2.0619,-2.062,-2.0612,-2.0611,-2.0615,-2.0617,-2.0618,-2.0617,-2.0561,-2.0609,-2.0609,-2.0609,-2.0609,-2.0608,-2.0553,-2.0564,-2.0569,-2.058,-2.0585,-2.0591,-2.0601,-2.0601,-2.0611,-2.062,-2.0617,-2.063,-2.0634,-2.0644,-2.0647,-2.0657,-2.065,-2.0656,-2.0657,-2.0659,-2.0661,-2.0617,-2.0659,-2.0659,-2.0659,-2.0658,-2.0658,0,-2.0595,-2.0598,-2.0608,-2.0617,-2.0626,-2.0618,-2.0625,-2.0633,-2.0645,-2.065,-2.0658,-2.0671,-2.0681,-2.0682,-2.0691,-2.0699,-2.0696,-2.0702,-2.0701,-2.0701,-2.0667,-2.0662,-2.0704,-2.0704,-2.0704,-2.0704,-2.0704,-2.0704,-2.0617,-2.0635,-2.0635,-2.0655,-2.0657,-2.0671,-2.0675,-2.0681,-2.0685,-2.07,-2.0709,-2.0709,-2.0712,-2.0722,-2.0731,-2.0731,-2.0735,-2.0742,-2.074,-2.0708,-2.0704,-2.0699,-2.0695,-2.0743,-2.0743,-2.0774,-2.0774,-2.0774]}]]